Weather History for Kansas City, MO

Change the Weather History Date:

Wednesday, November 21, 2012

  Actual Average Record
Temperature  
Mean Temperature 54 °F -  
Max Temperature 72 °F 51 °F 73 °F (2010)
Min Temperature 37 °F 34 °F 18 °F (2000)
Degree Days  
Heating Degree Days 10    
Growing Degree Days 4 (Base 50)    
Moisture  
Dew Point 38 °F    
Average Humidity 64    
Maximum Humidity 93    
Minimum Humidity 28    
Precipitation  
Precipitation 0.00 in - - ()
Sea Level Pressure  
Sea Level Pressure 30.13 in    
Wind  
Wind Speed 4 mph (SSW)    
Max Wind Speed 15 mph    
Max Gust Speed 24 mph    
Visibility 7 miles    
Events      
Averages and records for this station are not official NWS values.
T = Trace of Precipitation, MM = Missing Value Source: NWS Daily Summary

Daily Weather History Graph

Daily Weather History Graph

Search for Another Location

Airport:

Trip Planner

Search our weather history database for the weather conditions in past years. The results will help you decide how hot, cold, wet, or windy it might be!

Date:

Astronomy

Nov. 21, 2012 Rise Set
Actual Time 7:08 AM CST 4:59 PM CST
Civil Twilight 6:39 AM CST 5:28 PM CST
Nautical Twilight 6:07 AM CST 6:01 PM CST
Astronomical Twilight 5:35 AM CST 6:33 PM CST
Moon 1:14 PM CST (11/21) 12:31 AM CST (11/21)
Length of Visible Light 10h 49m
Length of Day
9h 51m
First Quarter, 62% of the Moon is Illuminated
Nov 21
First Quarter
Nov 28
Full
Dec 6
Last Quarter
Dec 13
New
Dec 19
First Quarter

Hourly Weather History & Observations

Time (CST) Temp. Windchill Dew Point Humidity Pressure Visibility Wind Dir Wind Speed Gust Speed Precip Events Conditions
12:54 AM 43.0 °F - 39.0 °F 86% 30.21 in 7.0 mi Calm Calm - N/A   Clear
1:54 AM 41.0 °F - 37.0 °F 86% 30.21 in 6.0 mi Calm Calm - N/A   Clear
2:54 AM 41.0 °F - 37.0 °F 86% 30.21 in 6.0 mi Calm Calm - N/A   Clear
3:54 AM 39.9 °F - 37.9 °F 93% 30.20 in 5.0 mi Calm Calm - N/A   Clear
4:10 AM 39.2 °F - 37.4 °F 93% 30.20 in 1.8 mi Calm Calm - N/A   Clear
4:13 AM 39.2 °F - 37.4 °F 93% 30.20 in 5.0 mi Calm Calm - N/A   Clear
4:54 AM 39.0 °F - 37.0 °F 93% 30.20 in 5.0 mi Calm Calm - N/A   Clear
5:01 AM 39.2 °F - 37.4 °F 93% 30.19 in 0.8 mi Calm Calm - N/A   Clear
5:04 AM 39.2 °F - 37.4 °F 93% 30.19 in 7.0 mi Calm Calm - N/A   Clear
5:54 AM 39.0 °F - 36.0 °F 89% 30.20 in 7.0 mi Calm Calm - N/A   Clear
6:54 AM 39.0 °F 36.8 °F 36.0 °F 89% 30.21 in 5.0 mi NW 3.5 mph - N/A   Clear
7:17 AM 37.4 °F - 35.6 °F 93% 30.20 in 2.5 mi Calm Calm - N/A   Clear
7:37 AM 39.2 °F - 37.4 °F 93% 30.20 in 4.0 mi Calm Calm - N/A   Clear
7:54 AM 39.9 °F - 37.9 °F 93% 30.21 in 4.0 mi Calm Calm - N/A   Clear
8:54 AM 48.9 °F - 43.0 °F 80% 30.21 in 5.0 mi Calm Calm - N/A   Haze
9:54 AM 57.0 °F - 43.0 °F 59% 30.21 in 7.0 mi SSW 5.8 mph - N/A   Clear
10:54 AM 66.0 °F - 39.0 °F 37% 30.19 in 10.0 mi SSW 13.8 mph - N/A   Clear
11:54 AM 69.1 °F - 37.9 °F 32% 30.15 in 10.0 mi SSW 10.4 mph - N/A   Clear
12:54 PM 70.0 °F - 37.9 °F 31% 30.12 in 10.0 mi SSW 12.7 mph - N/A   Clear
1:54 PM 72.0 °F - 39.9 °F 31% 30.09 in 10.0 mi SSW 11.5 mph - N/A   Clear
2:54 PM 72.0 °F - 37.0 °F 28% 30.06 in 10.0 mi SSW 15.0 mph 24.2 mph N/A   Clear
3:54 PM 70.0 °F - 37.9 °F 31% 30.06 in 10.0 mi South 11.5 mph 24.2 mph N/A   Clear
4:54 PM 66.0 °F - 37.0 °F 34% 30.04 in 10.0 mi South 9.2 mph - N/A   Clear
5:54 PM 64.9 °F - 37.9 °F 37% 30.04 in 10.0 mi South 10.4 mph - N/A   Clear
6:54 PM 64.0 °F - 37.9 °F 38% 30.03 in 10.0 mi South 12.7 mph - N/A   Clear
7:54 PM 62.1 °F - 37.9 °F 41% 30.03 in 10.0 mi South 10.4 mph - N/A   Clear
8:54 PM 61.0 °F - 37.9 °F 42% 30.01 in 10.0 mi South 12.7 mph - N/A   Clear
9:54 PM 59.0 °F - 37.0 °F 44% 30.01 in 10.0 mi South 11.5 mph - N/A   Clear
10:54 PM 59.0 °F - 37.0 °F 44% 29.98 in 10.0 mi SSW 12.7 mph - N/A   Clear
11:54 PM 57.9 °F - 37.0 °F 46% 29.96 in 10.0 mi South 13.8 mph - N/A   Clear